Location: Monfort
(47.1967°N, 0.2115°W)
Time: 11:42:23
(UTC+00:00)

SL-08 RB Rocket - Pass Details

Date: 24 October 2020
Orbit: 648 x 683 km, 97.8° (Epoch: 27 November)

Event Time Altitude Azimuth Distance (km) Brightness Sun altitude
Exits shadow 19:03:07 41° 33° (NNE) 953 4.2 -22.1°
Drops below altitude 10° 19:06:29 10° 357° (N) 2,068 6.3 -22.7°
Sets 19:08:46 0° 352° (N) 2,987 7.3 -23.1°
